Location: Bjelajci
(45.0103°N, 16.1758°E)
Time: 09:28:28
(UTC+00:00)

Cosmos 1842 - Pass Details

Date: 14 July 2020
Orbit: 523 x 536 km, 82.5° (Epoch: 07 August)

Event Time Altitude Azimuth Distance (km) Brightness Sun altitude
Rises 02:17:42 0° 353° (N) 2,695 7.4 -9.8°
Reaches altitude 10° 02:19:52 10° 356° (N) 1,800 6.5 -9.5°
Maximum altitude 02:23:49 69° 80° (E) 579 3.6 -9.0°
Drops below altitude 10° 02:27:44 10° 164° (SSE) 1,788 5.7 -8.5°
Sets 02:29:52 0° 167° (SSE) 2,673 6.5 -8.2°
